Location: Kerb�bon
(47.7970°N, 3.3487°W)
Time: 09:14:07
(UTC+00:00)

Cosmos 1869 Rocket - Pass Details

Date: 12 May 2021
Orbit: 605 x 633 km, 82.5° (Epoch: 20 June)

Event Time Altitude Azimuth Distance (km) Brightness Sun altitude
Rises 22:25:34 0° 345° (NNW) 2,873 8.5 -19.8°
Reaches altitude 10° 22:27:51 10° 340° (NNW) 1,965 7.3 -20.0°
Maximum altitude 22:32:01 48° 266° (W) 801 4.2 -20.3°
Enters shadow 22:33:30 33° 215° (SW) 1,025 4.4 -20.4°
